User: anonymous   Login
Location: Muenchen
(48.1800°N, 11.5800°E)
Time: 06:47:12
(UTC+02:00)
Language:

Sich 1 Rocket - Orbit

View from above orbital plane
View from above orbital plane
View from above satellite
View from above satellite

Ground track
Ground track

The orbit data is extracted from the following two-line orbital elements,

1 23659U 95046C   18111.27743160 +.00000120 +00000-0 +13409-4 0  9995
2 23659 082.5334 019.5799 0024469 308.5640 168.0462 14.78278835219746
Epoch (UTC): 21 April 2018 06:39:30
Eccentricity: 0.0024469
inclination: 82.5334°
perigee height: 617 km
apogee height: 652 km
right ascension of ascending node: 19.5799°
argument of perigee: 308.5640°
revolutions per day: 14.78278835
mean anomaly at epoch: 168.0462°
orbit number at epoch: 21974

The dashed part of the orbit path shows where the satellite is in the earth's shadow,  

DLR